Content
SEND FEEDBACK

Daily
Averages
Monthly
Summary
United States of America

WRIGHTSBORO, NORTH CAROLINA


Home > North America > United States > North Carolina
Elevation: 30 feet     Latitude: 34 18N     Longitude: 077 54W

WEATHER
 
SELECT A DAY
Number of Records: 208,703;   Date Range: 1/1/95 - 7/23/14
 
SHARE

PRINT THIS DATA

[ ← Previous Day ]
WEATHER ALMANAC - APRIL 24, 2013
[ Next Day → ]
[ °C ]   °F
Weather ElementAverageHighLow
Temperature62.9 °F73.9 °F (2:53 pm)46.9 °F (6:53 am)
Dewpoint54.1 °F59 °F (8:53 pm)46 °F (4:53 am)
Humidity74.7 %97 % (2:53 am)53 % (3:53 pm)
Barometer30.13 in30.19 in (7:53 am)30.07 in (7:53 pm)
Wind Speed7.8 mph17.3 mph (3:53 pm)
Wind Gust25.3 mph (4:53 pm)
Weather ElementAverage
Visibility10 mi
Wind DirectionESE (127 °)

Weather ElementTotal
Precipitation---
Heating Degree Days4.6 (Base 65)
Growing Degree Days10.4 (Base 50)
Averaged from 23 records on April 24, 2013
WEATHER CONDITIONS BREAKOUT
WIND DIRECTION BREAKOUT
WEATHER BY HOUR - APRIL 24, 2013
[ °C ]   °F
Local TimeTemperatureDewpointHumidityBarometerVisibilityWind DirectionWind SpeedGust SpeedPrecipitationEventsConditions
1:53 AM50.0 °F48.0 °F93 %30.15 in10.0 miCalmClear
2:53 AM48.9 °F48.0 °F97 %30.15 in10.0 miCalmClear
3:53 AM48.9 °F46.9 °F93 %30.15 in10.0 miCalmClear
4:53 AM48.0 °F46.0 °F93 %30.15 in10.0 miCalmClear
5:53 AM48.2 °F46.4 °F93 %30.17 in10.0 miCalmClear
6:53 AM46.9 °F46.0 °F97 %30.18 in10.0 miCalmClear
7:53 AM54.0 °F52.0 °F93 %30.19 in9.0 miCalmClear
8:53 AM61.0 °F55.9 °F83 %30.19 in10.0 miCalmClear
9:53 AM66.0 °F54.0 °F65 %30.19 inSSE (150°)5.8 mphClear
10:53 AM69.1 °F55.0 °F61 %30.18 in10.0 miSouth (190°)8.1 mphPartly Cloudy
11:53 AM68.0 °F55.9 °F65 %30.17 in10.0 miSSE (150°)11.5 mph18.4 mphMostly Cloudy
12:53 PM70.0 °F57.0 °F63 %30.14 in10.0 miSouth (170°)12.7 mph17.3 mphMostly Cloudy
1:53 PM73.0 °F55.9 °F55 %30.12 in10.0 miSouth (190°)15.0 mph20.7 mphPartly Cloudy
2:53 PM73.9 °F57.0 °F55 %30.12 in10.0 miSW (230°)15.0 mph21.9 mphMostly Cloudy
3:53 PM73.9 °F55.9 °F53 %30.11 in10.0 miSW (220°)17.3 mph24.2 mphScattered Clouds
4:53 PM73.9 °F55.9 °F53 %30.09 in10.0 miSSW (210°)17.3 mph25.3 mphPartly Cloudy
5:53 PM72.0 °F57.0 °F59 %30.09 in10.0 miSW (220°)15.0 mph24.2 mphClear
6:53 PM70.0 °F57.0 °F63 %30.08 in10.0 miSSW (210°)11.5 mphClear
7:53 PM66.9 °F57.9 °F73 %30.07 in10.0 miSouth (180°)8.1 mphClear
8:53 PM66.0 °F59.0 °F78 %30.07 in10.0 miSouth (180°)10.4 mphClear
9:53 PM66.0 °F59.0 °F78 %30.11 in10.0 miSSW (200°)10.4 mphClear
10:53 PM66.0 °F59.0 °F78 %30.11 in10.0 miSSW (210°)11.5 mphClear
11:53 PM66.9 °F59.0 °F76 %30.10 in10.0 miSSW (210°)10.4 mphClear
Hourly data recorded from KILM, located miles away from Wrightsboro, North Carolina







STORIES FROM OUR PARTNERS